Weather History for White Plains, NY

Change the Weather History Date:

Wednesday, April 25, 2012

  Actual Average Record
Temperature  
Mean Temperature 49 °F -  
Max Temperature 59 °F 60 °F 78 °F (1982)
Min Temperature 39 °F 40 °F 35 °F (1999)
Degree Days  
Heating Degree Days 16    
Growing Degree Days 0 (Base 50)    
Moisture  
Dew Point 31 °F    
Average Humidity 51    
Maximum Humidity 79    
Minimum Humidity 30    
Precipitation  
Precipitation 0.00 in - - ()
Sea Level Pressure  
Sea Level Pressure 29.80 in    
Wind  
Wind Speed 4 mph (WSW)    
Max Wind Speed 12 mph    
Max Gust Speed 18 mph    
Visibility 10 miles    
Events      
Averages and records for this station are not official NWS values.
T = Trace of Precipitation, MM = Missing Value Source: NWS Daily Summary

Daily Weather History Graph

Daily Weather History Graph

Search for Another Location

Airport:

Trip Planner

Search our weather history database for the weather conditions in past years. The results will help you decide how hot, cold, wet, or windy it might be!

Date:

Astronomy

Apr. 25, 2012 Rise Set
Actual Time 6:00 AM EDT 7:45 PM EDT
Civil Twilight 5:30 AM EDT 8:15 PM EDT
Nautical Twilight 4:55 AM EDT 8:51 PM EDT
Astronomical Twilight 4:17 AM EDT 9:29 PM EDT
Moon 8:41 AM EDT (4/25) 11:51 PM EDT (4/25)
Length of Visible Light 14h 44m
Length of Day
13h 45m
Waxing Crescent, 16% of the Moon is Illuminated
Apr 25
Waxing Crescent
Apr 29
First Quarter
May 5
Full
May 12
Last Quarter
May 20
New

Hourly Weather History & Observations

Time (EDT) Temp. Windchill Dew Point Humidity Pressure Visibility Wind Dir Wind Speed Gust Speed Precip Events Conditions
12:56 AM 45.0 °F 43.5 °F 32.0 °F 60% 29.71 in 10.0 mi West 3.5 mph - N/A   Mostly Cloudy
1:56 AM 45.0 °F 42.6 °F 30.9 °F 58% 29.73 in 10.0 mi West 4.6 mph - N/A   Clear
2:56 AM 44.1 °F 40.8 °F 30.0 °F 58% 29.73 in 10.0 mi West 5.8 mph - N/A   Scattered Clouds
3:56 AM 43.0 °F 39.5 °F 30.0 °F 60% 29.74 in 10.0 mi WNW 5.8 mph - N/A   Clear
4:56 AM 39.9 °F - 30.9 °F 70% 29.75 in 10.0 mi Calm Calm - N/A   Clear
5:56 AM 39.0 °F - 32.0 °F 76% 29.76 in 10.0 mi Calm Calm - N/A   Clear
6:56 AM 39.9 °F - 34.0 °F 79% 29.78 in 10.0 mi Calm Calm - N/A   Clear
7:56 AM 48.9 °F - 33.1 °F 54% 29.80 in 10.0 mi Calm Calm - N/A   Clear
8:56 AM 52.0 °F - 28.0 °F 40% 29.81 in 10.0 mi SSE 6.9 mph - N/A   Scattered Clouds
9:56 AM 54.0 °F - 28.0 °F 37% 29.81 in 10.0 mi Variable 6.9 mph - N/A   Scattered Clouds
10:56 AM 55.0 °F - 28.0 °F 35% 29.81 in 10.0 mi South 5.8 mph - N/A   Mostly Cloudy
11:56 AM 57.2 °F - 26.6 °F 31% 29.79 in 10.0 mi West 9.2 mph 17.3 mph N/A   Scattered Clouds
12:56 PM 57.9 °F - 26.1 °F 30% 29.78 in 10.0 mi Variable 5.8 mph 18.4 mph N/A   Mostly Cloudy
1:56 PM 57.0 °F - 28.0 °F 33% 29.78 in 10.0 mi SW 9.2 mph - N/A   Mostly Cloudy
2:56 PM 55.9 °F - 33.1 °F 42% 29.77 in 10.0 mi South 8.1 mph - 0.00 in   Mostly Cloudy
3:56 PM 55.9 °F - 32.0 °F 40% 29.78 in 10.0 mi South 8.1 mph - N/A   Mostly Cloudy
4:56 PM 55.0 °F - 36.0 °F 49% 29.78 in 10.0 mi South 3.5 mph - N/A   Mostly Cloudy
5:56 PM 59.0 °F - 32.0 °F 36% 29.79 in 10.0 mi WNW 11.5 mph - N/A   Mostly Cloudy
6:56 PM 55.9 °F - 30.0 °F 37% 29.81 in 10.0 mi NW 10.4 mph - N/A   Mostly Cloudy
7:56 PM 53.1 °F - 30.9 °F 43% 29.83 in 10.0 mi NW 3.5 mph - N/A   Mostly Cloudy
8:56 PM 48.2 °F - 33.8 °F 58% 29.86 in 10.0 mi Calm Calm - N/A   Scattered Clouds
9:56 PM 46.9 °F - 34.0 °F 61% 29.88 in 10.0 mi WNW 3.5 mph - N/A   Clear
10:56 PM 45.0 °F - 34.0 °F 65% 29.90 in 10.0 mi Calm Calm - N/A   Clear
11:56 PM 42.1 °F - 34.0 °F 73% 29.91 in 10.0 mi Calm Calm - N/A   Clear